Regional Weather Roundup
Issued by NWS

Home | Current Version | Previous Version | Text Only | Print | Product List | Glossary On
Versions: 1 2 3 4 5 6 7 8 9 10 11 12 13 14 15 16 17 18 19 20 21 22 23 24 25 26 27 28 29 30 31 32 33 34 35 36 37 38 39 40 41 42 43 44 45 46 47 48 49 50
000
ASUS43 KMPX 281110
RWRMN
WEATHER ROUNDUP FOR MINNESOTA
NATIONAL WEATHER SERVICE TWIN CITIES/CHANHASSEN MN
600 AM CDT WED JUN 28 2017


NOTE: "FAIR" INDICATES FEW OR NO CLOUDS BELOW 12,000 FEET WITH NO
SIGNIFICANT WEATHER AND/OR OBSTRUCTIONS TO VISIBILITY. N/A MEANS
CURRENT SKY AND/OR WEATHER CONDITIONS ARE NOT AVAILABLE.

MNZ060>063-068>070-281200-
   Twin Cities Metro

CITY           SKY/WX    TMP DP  RH WIND       PRES   REMARKS
TWIN CITIES    RAIN      63  59  87 E21       29.63F FOG
ST PAUL        RAIN      62  62 100 SE10      29.67F FOG
CRYSTAL        LGT RAIN  63  58  83 E12       29.62F
BLAINE         RAIN      64  64 100 SE12      29.66F
LAKEVILLE      RAIN      61  61 100 E12       29.63F
EDEN PRAIRIE   LGT RAIN  63  60  90 E15       29.61F
SOUTH ST PAUL  LGT RAIN  61  61  99 SE8       29.66F
LAKE ELMO      RAIN      63  61  94 S12       29.70F
$$
MNZ001>005-007-008-013>017-022>024-027-028-281200-
   Northwest Minnesota

CITY           SKY/WX    TMP DP  RH WIND       PRES   REMARKS
BEMIDJI        LGT RAIN  56  54  92 SE8       29.60F
HALLOCK        DRIZZLE   59  57  94 SE5       29.55S
ROSEAU         RAIN      63  55  77 S7        29.58R
WARROAD        RAIN      63  55  77 SE5       29.59R
THIEF RVR FALL CLOUDY    62  58  86 SE12      29.55S
CROOKSTON      CLOUDY    61  61 100 SE13      29.51F
FOSSTON        CLOUDY    57  55  94 SE7       29.55F
DETROIT LAKES  CLOUDY    61  57  88 SE10      29.54F
MOORHEAD       CLOUDY    66  61  82 SE15G23   29.48F
PARK RAPIDS    LGT RAIN  58  54  86 SE10      29.58
MAHNOMEN       FAIR      60  57  89 SE10      29.52F
$$
MNZ006-009>011-018-025>026-281200-
   North Central Minnesota

CITY           SKY/WX    TMP DP  RH WIND       PRES   REMARKS
BAUDETTE       CLOUDY    58  48  69 SE13      29.62
FLAG ISLAND    CLOUDY    64  52  63 SE15      29.59R
INTL FALLS     CLOUDY    55  46  71 SE6       29.67R
WASKISH        CLOUDY    61  52  72 SE7       29.63R
BIG FORK       LGT RAIN  55  52  88 CALM      29.67S
LONGVILLE      LGT RAIN  55  54  94 CALM      29.64S
GRAND RAPIDS   RAIN      55  50  83 SE7       29.67F
CRANE LAKE     CLOUDY    52  48  87 CALM      29.72S
ORR            CLOUDY    55  45  67 SE5       29.68S
COOK           CLOUDY    54  46  76 E3        29.70F
WALKER         LGT RAIN  57  53  86 SE3       29.62F
$$
MNZ012-019>021-037-281200-
   Northeast Minnesota

CITY           SKY/WX    TMP DP  RH WIND       PRES   REMARKS
DULUTH         CLOUDY    57  48  72 E7        29.70F
ELY            CLOUDY    55  45  67 S5        29.72F
HIBBING        CLOUDY    52  48  86 SE3       29.68F
EVELETH        CLOUDY    53  45  75 NE6       29.71F
DULUTH HARBOR  CLOUDY    57  54  88 NE12      29.70F
TWO HARBORS    CLOUDY    54  48  82 NE6       29.71F
SILVER BAY     CLOUDY    46  45  93 CALM      29.73F
GRAND MARAIS     N/A     48  46  93 NE3       29.78
G MARAIS ARPRT PTCLDY    48  43  81 CALM      29.80F
$$
MNZ029>031-032-039>041-046>048-054>057-064-281200-
   West Central Minnesota

CITY           SKY/WX    TMP DP  RH WIND       PRES   REMARKS
FERGUS FALLS   CLOUDY    64  61  88 SE13G22   29.51R
WHEATON        LGT RAIN  64  61  88 SE12      29.50F
MORRIS         CLOUDY    66  61  82 SE15      29.52S
ALEXANDRIA     LGT RAIN  61  60  97 SE16G26   29.58R FOG
ELBOW LAKE     CLOUDY    64  62  93 SE9G23    29.55R
WADENA         RAIN      57  55  94 E8        29.57F
GLENWOOD       CLOUDY    61  61 100 SE12      29.58R
APPLETON       CLOUDY    66  61  82 SE10      29.51R
BENSON         CLOUDY    64  61  88 S13       29.56R
ORTONVILLE     CLOUDY    66  63  88 E7        29.50R
MADISON        CLOUDY    68  66  94 SE13      29.50F
WILLMAR        FAIR      64  63  94 SE15G21   29.56F
$$
MNZ033>034-036-042>043-049>051-058-059-281200-
   Central Minnesota

CITY           SKY/WX    TMP DP  RH WIND       PRES   REMARKS
ST CLOUD       LGT RAIN  62  62 100 SE9       29.61F
SAUK CENTRE    HVY RAIN  60  59  96 SE12G18   29.59F
PAYNESVILLE    LGT RAIN  61  61 100 E9        29.60S
AITKIN         LGT RAIN  57  52  82 NE3       29.65R
PINE RIVER     RAIN      57  57 100 CALM      29.67S
BRAINERD       LGT RAIN  60  54  80 SE5       29.64
STAPLES        RAIN      57  55  94 CALM      29.61F
LONG PRAIRIE   RAIN      59  59 100 E13G22    29.59F
LITTLE FALLS   RAIN      61  59  94 S9        29.61S
LITCHFIELD     RAIN      63  63 100 SE12      29.59F
BUFFALO        RAIN      62  59  90 E8        29.63F
MAPLE LAKE     LGT RAIN  63  62  96 SE9       29.62F
HUTCHINSON     RAIN      63  63  98 E12       29.62R
$$
MNZ037-044-045-052-053-281200-
   East Central Minnesota

CITY           SKY/WX    TMP DP  RH WIND       PRES   REMARKS
PRINCETON      LGT RAIN  64  63  94 S14G21    29.62F
MORA           CLOUDY    57  48  72 E3        29.67S
CAMBRIDGE      LGT RAIN  64  55  72 S12G17    29.62F
RUSH CITY      CLOUDY    61  50  67 SE8       29.66F
MOOSE LAKE     CLOUDY    59  48  67 S3        29.67S
HINCKLEY       CLOUDY    63  50  63 SE9       29.67S
CLOQUET        LGT RAIN  55  48  76 E3        29.69F
MCGREGOR       CLOUDY    59  50  72 SE6       29.68R
$$
MNZ071>073-080-081-089-090-097-098-281200-
   Southwest Minnesota

CITY           SKY/WX    TMP DP  RH WIND       PRES   REMARKS
MONTEVIDEO     DRIZZLE   64  61  88 S8        29.54R
GRANITE FALLS  CLOUDY    66  62  86 S8        29.57R
CANBY          CLOUDY    68  64  86 CALM      29.53F
MARSHALL       CLOUDY    66  61  84 S8        29.54R
REDWOOD FALLS  LGT RAIN  65  62  90 SE14G24   29.52F
OLIVIA         LGT RAIN  61  59  94 E13       29.54F
PIPESTONE      CLOUDY    64  63  94 S21       29.60R
WINDOM         MOCLDY    66  63  88 S10       29.58S
WORTHINGTON    CLOUDY    65  61  87 S16G24    29.62R
JACKSON        CLOUDY    63  63 100 S17       29.59F
TRACY          CLOUDY    64  62  93 S12G17    29.55R
SLAYTON        CLOUDY    61  60  96 S12       29.59R
$$
MNZ065>067-074>077-082>085-091>093-281200-
   South Central Minnesota

CITY           SKY/WX    TMP DP  RH WIND       PRES   REMARKS
MANKATO        CLOUDY    63  61  93 SE16      29.61S
NEW ULM        LGT RAIN  63  61  94 SE7       29.59S
ST JAMES       CLOUDY    64  63  94 N5        29.57F
FAIRMONT       LGT RAIN  68  65  90 S22G29    29.57F
GLENCOE        LGT RAIN  63  63 100 SE8       29.62R
FARIBAULT      LGT RAIN  64  63  94 SE13G18   29.65F
OWATONNA       LGT RAIN  64  63  94 SE20      29.66R
WASECA         CLOUDY    63  59  88 SE15G26   29.65R
ALBERT LEA     CLOUDY    63  61  94 S14       29.67F
$$
MNZ078>079-086>088-094>096-281200-
   Southeast Minnesota

CITY           SKY/WX    TMP DP  RH WIND       PRES   REMARKS
ROCHESTER      RAIN      63  62  97 S22       29.73F FOG
RED WING       LGT RAIN  61  57  88 CALM      29.70F
STANTON        RAIN      63  60  91 E14       29.62F
DODGE CENTER   LGT RAIN  64  61  88 SE17G23   29.69F
WINONA         LGT RAIN  61  55  82 CALM      29.76R
AUSTIN         CLOUDY    63  59  88 SE15      29.70F
PRESTON        RAIN      61  58  90 S13G18    29.78R
$$
ABBREVIATIONS USED IN REMARKS
   TC - TEMPERATURES IN CELSIUS
  WCI - WIND CHILL INDEX
   HX - HEAT INDEX
  VSB - VISIBILITY
$$




USA.gov is the U.S. government's official web portal to all federal, state and local government web resources and services.